When you browse on this site, cookies collect data to enhance your experience and personalize the content and advertising you see.
Visit our Privacy Policy to learn more. By continuing to use the site, you agree to this use of cookies and data.
  • In Hungary
  • List of Countries
  • For 7 days
  • Water Temperature
  • Weather Map
  • News
  • Weather Widgets
  • user-avatar
    Login

    Hourly Weather Hupri

    Today, 23 October, Wednesday

    Time Temperature Precipitation Wind Pressure Humidity
    00:00 +5°C° 0 mm 0 mps 621 mmHg 83%
    01:00 +5°C° 0 mm 0 mps 621 mmHg 83%
    02:00 +5°C° 0 mm 0 mps 621 mmHg 84%
    03:00 +4°C° 0 mm 0 mps 621 mmHg 83%
    04:00 +5°C° 0 mm 1 mps 621 mmHg 78%
    05:00 +5°C° 0 mm 1 mps 621 mmHg 72%
    06:00 +5°C° 0 mm 1 mps 621 mmHg 67%
    07:00 +7°C° 0 mm 1 mps 622 mmHg 57%
    08:00 +9°C° 0 mm 1 mps 623 mmHg 48%
    09:00 +12°C° 0 mm 1 mps 624 mmHg 41%
    10:00 +12°C° 0 mm 1 mps 624 mmHg 42%
    11:00 +13°C° 0 mm 1 mps 624 mmHg 44%
    12:00 +14°C° 0 mm 2 mps 624 mmHg 45%
    13:00 +13°C° 0 mm 1 mps 624 mmHg 48%
    14:00 +13°C° 0 mm 1 mps 623 mmHg 51%
    15:00 +12°C° 0 mm 1 mps 623 mmHg 56%
    16:00 +11°C° 0 mm 1 mps 622 mmHg 62%
    17:00 +9°C° 0 mm 1 mps 622 mmHg 69%
    18:00 +8°C° 0 mm 1 mps 622 mmHg 76%
    19:00 +6°C° 0 mm 0 mps 621 mmHg 76%
    20:00 +6°C° 0 mm 0 mps 621 mmHg 77%
    21:00 +5°C° 0 mm 0 mps 621 mmHg 77%
    22:00 +5°C° 0 mm 0 mps 621 mmHg 78%
    23:00 +5°C° 0 mm 0 mps 621 mmHg 78%

    Tomorrow, 24 October, Thursday

    Time Temperature Precipitation Wind Pressure Humidity
    00:00 +5°C° 0 mm 0 mps 621 mmHg 78%
    01:00 +5°C° 0 mm 0 mps 621 mmHg 80%
    02:00 +5°C° 0 mm 0 mps 621 mmHg 83%
    03:00 +5°C° 0 mm 0 mps 621 mmHg 85%
    04:00 +4°C° 0 mm 0 mps 621 mmHg 85%
    05:00 +4°C° 0 mm 0 mps 621 mmHg 85%
    06:00 +4°C° 0 mm 0 mps 621 mmHg 85%
    07:00 +6°C° 0 mm 0 mps 622 mmHg 75%
    08:00 +7°C° 0 mm 0 mps 622 mmHg 65%
    09:00 +9°C° 0 mm 0 mps 623 mmHg 55%
    10:00 +11°C° 0 mm 1 mps 623 mmHg 53%
    11:00 +12°C° 0 mm 1 mps 623 mmHg 52%
    12:00 +13°C° 0 mm 2 mps 623 mmHg 51%
    13:00 +13°C° 0 mm 2 mps 623 mmHg 53%
    14:00 +12°C° 0 mm 1 mps 623 mmHg 56%
    15:00 +12°C° 0 mm 1 mps 623 mmHg 59%
    16:00 +10°C° 0 mm 1 mps 622 mmHg 66%
    17:00 +9°C° 0 mm 1 mps 621 mmHg 73%
    18:00 +6°C° 0 mm 0 mps 621 mmHg 80%
    19:00 +6°C° 0 mm 0 mps 621 mmHg 81%
    20:00 +5°C° 0 mm 0 mps 621 mmHg 82%
    21:00 +5°C° 0 mm 0 mps 621 mmHg 83%
    22:00 +5°C° 0 mm 0 mps 621 mmHg 84%
    23:00 +6°C° 0 mm 1 mps 621 mmHg 86%

    Day after tomorrow, 25 October, Friday

    Time Temperature Precipitation Wind Pressure Humidity
    00:00 +6°C° 0 mm 1 mps 621 mmHg 87%
    01:00 +6°C° 0 mm 1 mps 621 mmHg 88%
    02:00 +6°C° 0 mm 1 mps 621 mmHg 88%
    03:00 +6°C° 0 mm 1 mps 621 mmHg 88%
    04:00 +6°C° 0 mm 1 mps 620 mmHg 88%
    05:00 +6°C° 0 mm 1 mps 620 mmHg 87%
    06:00 +5°C° 0 mm 1 mps 620 mmHg 86%
    07:00 +7°C° 0 mm 1 mps 620 mmHg 78%
    08:00 +8°C° 0 mm 1 mps 621 mmHg 70%
    09:00 +10°C° 0 mm 1 mps 621 mmHg 62%
    10:00 +11°C° 0 mm 1 mps 622 mmHg 60%
    11:00 +12°C° 0 mm 1 mps 622 mmHg 59%
    12:00 +12°C° 0 mm 2 mps 622 mmHg 57%
    13:00 +12°C° 0 mm 1 mps 622 mmHg 58%
    14:00 +12°C° 0 mm 1 mps 621 mmHg 60%
    15:00 +12°C° 0 mm 1 mps 621 mmHg 62%
    16:00 +10°C° 0 mm 1 mps 621 mmHg 69%
    17:00 +9°C° 0 mm 1 mps 620 mmHg 75%
    18:00 +6°C° 0 mm 0 mps 620 mmHg 82%
    19:00 +6°C° 0 mm 0 mps 619 mmHg 83%
    20:00 +6°C° 0 mm 0 mps 619 mmHg 84%
    21:00 +5°C° 0 mm 0 mps 619 mmHg 84%
    22:00 +6°C° 0 mm 1 mps 619 mmHg 86%
    23:00 +6°C° 0 mm 1 mps 619 mmHg 87%

    26 October, Saturday

    Time Temperature Precipitation Wind Pressure Humidity
    00:00 +5°C° 0 mm 1 mps 619 mmHg 88%
    01:00 +5°C° 0 mm 1 mps 619 mmHg 88%
    02:00 +5°C° 0 mm 1 mps 619 mmHg 87%
    03:00 +5°C° 0 mm 1 mps 619 mmHg 86%
    04:00 +5°C° 0 mm 1 mps 619 mmHg 85%
    05:00 +5°C° 0 mm 1 mps 619 mmHg 84%
    06:00 +5°C° 0 mm 1 mps 619 mmHg 82%
    07:00 +7°C° 0 mm 1 mps 620 mmHg 75%
    08:00 +9°C° 0 mm 1 mps 621 mmHg 67%
    09:00 +11°C° 0 mm 1 mps 622 mmHg 60%
    10:00 +11°C° 0 mm 1 mps 622 mmHg 58%
    11:00 +12°C° 0 mm 1 mps 622 mmHg 57%
    12:00 +13°C° 0 mm 1 mps 622 mmHg 55%
    13:00 +12°C° 0.2 mm 1 mps 622 mmHg 59%
    14:00 +12°C° 0.2 mm 1 mps 621 mmHg 63%
    15:00 +12°C° 0.2 mm 1 mps 621 mmHg 66%
    16:00 +10°C° 0.2 mm 1 mps 621 mmHg 73%
    17:00 +9°C° 0.2 mm 1 mps 620 mmHg 79%
    18:00 +7°C° 0.2 mm 1 mps 620 mmHg 85%
    19:00 +6°C° 0 mm 0 mps 620 mmHg 85%
    20:00 +5°C° 0 mm 0 mps 620 mmHg 85%
    21:00 +5°C° 0 mm 0 mps 620 mmHg 86%
    22:00 +5°C° 0 mm 0 mps 620 mmHg 86%
    23:00 +5°C° 0 mm 0 mps 620 mmHg 85%

    27 October, Sunday

    Time Temperature Precipitation Wind Pressure Humidity
    00:00 +5°C° 0 mm 0 mps 620 mmHg 85%
    01:00 +5°C° 0 mm 0 mps 620 mmHg 85%
    02:00 +4°C° 0 mm 0 mps 620 mmHg 84%
    03:00 +5°C° 0 mm 1 mps 620 mmHg 84%
    04:00 +5°C° 0 mm 1 mps 620 mmHg 82%
    05:00 +5°C° 0 mm 1 mps 620 mmHg 80%
    06:00 +5°C° 0 mm 1 mps 620 mmHg 78%
    07:00 +7°C° 0 mm 1 mps 621 mmHg 70%
    08:00 +9°C° 0 mm 1 mps 622 mmHg 62%
    09:00 +11°C° 0 mm 1 mps 622 mmHg 54%
    10:00 +12°C° 0 mm 1 mps 623 mmHg 51%
    11:00 +13°C° 0 mm 1 mps 623 mmHg 48%
    12:00 +14°C° 0 mm 1 mps 623 mmHg 45%
    13:00 +13°C° 0 mm 1 mps 623 mmHg 46%
    14:00 +13°C° 0 mm 1 mps 622 mmHg 47%
    15:00 +13°C° 0 mm 1 mps 622 mmHg 49%
    16:00 +11°C° 0 mm 1 mps 622 mmHg 56%
    17:00 +9°C° 0 mm 1 mps 621 mmHg 63%
    18:00 +7°C° 0 mm 1 mps 620 mmHg 71%
    19:00 +7°C° 0 mm 1 mps 621 mmHg 70%
    20:00 +7°C° 0 mm 1 mps 621 mmHg 69%
    21:00 +6°C° 0 mm 1 mps 621 mmHg 69%
    22:00 +6°C° 0 mm 1 mps 621 mmHg 67%
    23:00 +6°C° 0 mm 1 mps 621 mmHg 66%

    28 October, Monday

    Time Temperature Precipitation Wind Pressure Humidity
    00:00 +6°C° 0 mm 1 mps 620 mmHg 64%
    01:00 +6°C° 0 mm 1 mps 620 mmHg 65%
    02:00 +6°C° 0 mm 1 mps 620 mmHg 65%
    03:00 +5°C° 0 mm 1 mps 620 mmHg 65%
    04:00 +5°C° 0 mm 1 mps 620 mmHg 65%
    05:00 +5°C° 0 mm 1 mps 620 mmHg 64%
    06:00 +5°C° 0 mm 1 mps 620 mmHg 63%
    07:00 +7°C° 0 mm 1 mps 621 mmHg 58%
    08:00 +9°C° 0 mm 1 mps 622 mmHg 52%
    09:00 +11°C° 0 mm 1 mps 623 mmHg 46%
    10:00 +12°C° 0 mm 1 mps 623 mmHg 46%
    11:00 +13°C° 0 mm 1 mps 623 mmHg 45%
    12:00 +14°C° 0 mm 2 mps 623 mmHg 44%
    13:00 +14°C° 0 mm 2 mps 623 mmHg 47%
    14:00 +14°C° 0 mm 2 mps 623 mmHg 49%
    15:00 +14°C° 0 mm 1 mps 622 mmHg 51%
    16:00 +12°C° 0 mm 1 mps 621 mmHg 59%
    17:00 +10°C° 0 mm 1 mps 621 mmHg 67%
    18:00 +8°C° 0 mm 1 mps 620 mmHg 75%
    19:00 +7°C° 0 mm 1 mps 620 mmHg 70%
    20:00 +7°C° 0 mm 1 mps 620 mmHg 66%
    21:00 +7°C° 0 mm 1 mps 620 mmHg 61%
    22:00 +7°C° 0 mm 1 mps 619 mmHg 58%
    23:00 +7°C° 0 mm 1 mps 619 mmHg 54%

    29 October, Tuesday

    Time Temperature Precipitation Wind Pressure Humidity
    00:00 +6°C° 0 mm 1 mps 619 mmHg 51%
    01:00 +6°C° 0 mm 1 mps 619 mmHg 50%
    02:00 +6°C° 0 mm 1 mps 619 mmHg 50%
    03:00 +6°C° 0 mm 1 mps 618 mmHg 49%
    04:00 +6°C° 0 mm 1 mps 618 mmHg 48%
    05:00 +6°C° 0 mm 1 mps 618 mmHg 47%
    06:00 +6°C° 0 mm 1 mps 618 mmHg 46%
    07:00 +8°C° 0 mm 1 mps 619 mmHg 42%
    08:00 +10°C° 0 mm 1 mps 620 mmHg 39%
    09:00 +12°C° 0 mm 1 mps 620 mmHg 36%
    10:00 +13°C° 0 mm 1 mps 621 mmHg 35%
    11:00 +14°C° 0 mm 1 mps 621 mmHg 35%
    12:00 +15°C° 0 mm 2 mps 621 mmHg 35%
    13:00 +15°C° 0 mm 2 mps 621 mmHg 37%
    14:00 +15°C° 0 mm 1 mps 620 mmHg 39%
    15:00 +14°C° 0 mm 1 mps 620 mmHg 41%
    16:00 +12°C° 0 mm 1 mps 619 mmHg 50%
    17:00 +10°C° 0 mm 1 mps 618 mmHg 58%
    18:00 +8°C° 0 mm 1 mps 618 mmHg 66%
    19:00 +8°C° 0 mm 1 mps 618 mmHg 66%
    20:00 +8°C° 0 mm 1 mps 618 mmHg 66%
    21:00 +7°C° 0 mm 1 mps 618 mmHg 66%
    22:00 +7°C° 0 mm 1 mps 618 mmHg 66%
    23:00 +7°C° 0 mm 1 mps 617 mmHg 66%
    Show more